Location: Azul
(36.7830°S, 59.8500°W)
Time: 02:02:31
(UTC-03:00)

HuskySat-1 - Pass Details

Date: 31 October 2021
Orbit: 443 x 456 km, 51.6° (Epoch: 04 December)

Event Time Altitude Azimuth Distance (km) Brightness Sun altitude
Rises 20:08:53 0° 275° (W) 2,492 ? -7.7°
Reaches altitude 10° 20:11:26 10° 257° (WSW) 1,622 ? -8.2°
Maximum altitude 20:14:14 20° 207° (SSW) 1,127 ? -8.7°
Drops below altitude 10° 20:17:03 10° 157° (SSE) 1,631 ? -9.2°
Sets 20:19:38 0° 140° (SE) 2,510 ? -9.7°
